TimeCST,TemperatureF,Dew PointF,Humidity,Sea Level PressureIn,VisibilityMPH,Wind Direction,Wind SpeedMPH,Gust SpeedMPH,PrecipitationIn,Events,Conditions,WindDirDegrees,DateUTC
12:58 AM,30.9,30.0,96,30.31,9.0,Calm,Calm,-,N/A,,Clear,0,2013-03-07 06:58:00
1:58 AM,30.0,28.9,96,30.30,8.0,Calm,Calm,-,N/A,,Clear,0,2013-03-07 07:58:00
2:58 AM,32.0,30.0,92,30.29,10.0,NNW,3.5,-,N/A,,Clear,340,2013-03-07 08:58:00
3:58 AM,32.0,30.0,92,30.30,10.0,Calm,Calm,-,N/A,,Clear,0,2013-03-07 09:58:00
4:58 AM,33.1,30.0,89,30.30,10.0,Calm,Calm,-,N/A,,Clear,0,2013-03-07 10:58:00
5:58 AM,33.1,30.0,89,30.32,10.0,North,5.8,-,N/A,,Clear,350,2013-03-07 11:58:00
6:58 AM,36.0,28.9,76,30.34,10.0,NE,5.8,-,N/A,,Clear,50,2013-03-07 12:58:00
7:58 AM,37.0,30.0,76,30.37,10.0,ENE,6.9,-,N/A,,Clear,60,2013-03-07 13:58:00
8:58 AM,43.0,30.0,60,30.38,10.0,NE,5.8,-,N/A,,Clear,40,2013-03-07 14:58:00
9:58 AM,45.0,28.9,53,30.38,10.0,NE,6.9,-,N/A,,Clear,50,2013-03-07 15:58:00
10:58 AM,48.9,28.9,46,30.36,10.0,NE,6.9,-,N/A,,Clear,50,2013-03-07 16:58:00
11:58 AM,51.1,28.0,41,30.34,10.0,East,3.5,-,N/A,,Clear,90,2013-03-07 17:58:00
12:58 PM,55.0,28.9,37,30.29,10.0,Calm,Calm,-,N/A,,Clear,0,2013-03-07 18:58:00
1:58 PM,57.0,28.9,34,30.28,10.0,Calm,Calm,-,N/A,,Clear,0,2013-03-07 19:58:00
2:58 PM,59.0,28.9,32,30.27,10.0,North,4.6,-,N/A,,Clear,360,2013-03-07 20:58:00
3:58 PM,60.1,30.0,32,30.26,10.0,Variable,4.6,-,N/A,,Clear,0,2013-03-07 21:58:00
4:58 PM,59.0,30.9,35,30.25,10.0,North,5.8,-,N/A,,Clear,10,2013-03-07 22:58:00
5:58 PM,52.0,36.0,54,30.26,10.0,Calm,Calm,-,N/A,,Clear,0,2013-03-07 23:58:00
6:58 PM,45.0,37.9,76,30.27,10.0,Calm,Calm,-,N/A,,Clear,0,2013-03-08 00:58:00
7:58 PM,42.1,37.0,82,30.28,10.0,Calm,Calm,-,N/A,,Clear,0,2013-03-08 01:58:00
8:58 PM,41.0,37.0,86,30.27,10.0,Calm,Calm,-,N/A,,Clear,0,2013-03-08 02:58:00
9:58 PM,37.9,36.0,93,30.27,10.0,Calm,Calm,-,N/A,,Clear,0,2013-03-08 03:58:00
10:58 PM,37.0,35.1,93,30.28,10.0,Calm,Calm,-,N/A,,Clear,0,2013-03-08 04:58:00
11:58 PM,35.1,34.0,96,30.28,9.0,Calm,Calm,-,N/A,,Clear,0,2013-03-08 05:58:00